Starlink 31557

operational
NORAD ID: 59357 Int'l Des: 2024-060 Owner: SPXS Country: US Constellation: starlink
LEOCIRCULAR

About Starlink 31557

Description loading...

Live Position

Loading 3D Globe...

Upcoming Passes

Altitude History

Altitude vs Time

uPlot chart will show altitude changes over time

Two-Line Element Set

1 59357U 24060K 25259.13295806 .00003366 00000-0 13172-3 0 9993
2 59357 43.0008 161.5640 0001249 282.1884 77.8828 15.27597925 83416
Epoch: Sep 16, 2025 • Age: 16 hours

Current Status

Altitude 484.6 km
Velocity 7.63 km/s
Sub-Earth Point 31.35°N, 9.44°E
Launch Date Mar 31, 2024
Age 1.4 years
Type internet

Technical Details

Classification Payload
Mass 730.00 kg
Dry Mass 700.00 kg
Total Mass 730.00 kg
Length 0.30 m
Diameter 4.10 m
Span 29.00 m
Shape Box + pan
Manufacturer SPXS
Bus Type Starlink V2M
Phase Status In Orbit
Owner/State SPXS/US

Large Constellations

Loading constellations...